Wind_Speed
5 4 3 5 5 2 2 4 6 7 8 8 9 10 11 13 13 12 12 12 11 12 12 12 12 13 13 12 12 13 13 13 13 13 13 12 12 11 12 12 12 11 11 10
5 6 6 5 4 2 4 5 7 8 8 7 8 9 9 13 13 13 12 13 12 12 11 12 12 12 12 12 12 13 13 14 13 13 13 13 13 13 12 13 13 12 11 11
7 7 8 5 5 4 6 7 7 7 10 10 10 11 10 11 13 13 13 14 13 13 12 12 12 12 12 12 12 13 13 14 14 14 13 13 13 13 13 13 12 12 12 12
10 9 8 6 6 6 7 7 6 7 9 11 12 13 12 12 14 14 14 14 13 13 13 12 12 13 13 12 12 12 13 13 13 14 13 13 14 14 14 14 13 12 12 12
11 10 10 8 9 9 8 7 7 8 9 9 12 14 13 12 13 14 15 14 15 14 14 13 13 13 13 13 13 13 13 14 14 14 14 14 14 14 14 14 14 14 13 13
12 12 11 11 11 10 8 7 9 10 10 11 12 13 14 13 13 14 14 14 15 14 14 14 14 14 14 14 14 14 14 14 15 15 15 15 14 15 15 15 15 14 14 14
13 13 14 13 11 10 8 9 11 11 10 11 11 12 15 12 14 15 15 14 15 15 15 15 15 14 14 15 15 15 15 15 15 15 16 16 16 15 16 15 15 15 15 15
14 15 14 14 12 10 10 9 11 12 12 13 13 14 15 15 15 15 16 16 15 15 15 15 15 15 15 15 15 15 15 16 16 16 17 17 17 16 16 16 16 15 15 15
14 13 12 13 12 12 11 11 11 12 12 13 15 16 16 14 14 16 17 16 16 15 15 15 16 16 16 16 15 15 16 17 17 17 17 17 17 17 17 17 17 16 16 16
14 14 12 13 14 14 13 11 11 12 13 12 13 16 16 16 17 17 18 18 16 16 16 16 16 17 17 17 16 16 17 18 18 19 19 18 18 18 18 18 17 17 17 17
17 16 15 15 15 13 13 12 12 12 12 13 15 17 18 18 20 18 17 17 18 17 17 17 18 18 18 17 17 18 18 19 19 19 19 19 19 19 19 19 19 19 18 18
18 17 19 18 17 15 15 14 13 13 14 14 15 20 21 20 19 17 16 18 19 19 18 18 18 19 19 19 18 18 19 19 20 20 20 20 20 20 19 19 19 20 19 19
20 19 18 18 17 16 15 14 14 14 15 15 16 20 20 20 19 17 16 19 19 18 19 19 18 19 19 20 20 20 19 19 20 21 21 20 20 20 20 20 20 20 20 20
21 21 19 18 17 16 15 15 16 16 15 16 17 20 21 21 19 17 18 20 20 19 19 19 19 20 19 20 20 21 20 20 20 21 21 21 20 20 21 21 21 21 20 20
22 22 20 19 18 18 17 15 15 16 16 16 18 20 21 22 20 19 20 21 20 19 19 19 20 19 20 20 21 21 21 21 20 21 21 21 21 21 21 21 21 21 21 21
24 23 22 22 20 19 18 17 15 15 16 17 19 20 21 23 23 21 21 21 20 21 21 20 21 22 21 21 21 21 21 21 21 21 21 21 21 21 22 21 21 21 21 20
23 23 24 23 21 20 20 18 17 18 19 19 20 21 21 23 24 22 20 21 21 21 21 21 22 22 21 21 21 21 21 21 22 22 22 22 23 23 23 23 23 22 21 21
24 25 25 23 23 24 22 20 20 20 21 20 20 20 22 23 25 24 22 21 22 22 22 22 22 22 22 21 21 21 22 22 22 23 23 23 23 24 23 23 23 23 23 23
24 25 25 25 25 24 23 21 20 21 22 21 20 21 22 23 23 23 21 21 22 22 22 22 22 22 22 22 22 22 22 22 22 23 23 24 24 24 24 24 25 24 24 24
27 28 27 25 26 25 24 22 22 22 23 24 23 23 23 23 24 24 21 20 21 22 22 23 23 23 22 22 23 23 23 23 23 24 25 25 25 25 25 25 26 25 25 24
28 28 28 27 26 26 26 24 23 24 24 25 25 25 24 25 24 22 22 23 22 22 22 23 23 23 23 23 24 24 25 25 25 25 26 26 26 26 26 26 26 25 24 25
29 29 29 28 27 28 28 27 27 27 27 27 27 26 26 25 24 24 25 25 23 24 24 23 24 24 24 24 25 25 26 26 26 27 27 27 27 27 27 27 26 26 26 25
28 27 27 27 28 30 30 30 31 30 30 29 28 28 27 26 26 26 25 25 24 26 25 24 25 25 25 25 26 27 28 28 28 28 27 27 27 28 27 27 26 26 26 25
28 28 30 30 30 30 30 31 31 31 31 31 30 28 28 29 28 28 26 26 26 27 26 25 26 26 26 26 27 28 28 27 27 27 27 27 27 27 27 27 26 27 27 26
30 30 31 32 33 33 33 32 31 32 32 31 30 29 28 30 30 30 28 28 28 27 27 27 27 27 27 27 28 28 28 28 27 27 27 27 27 27 27 27 27 26 26 27
31 32 32 32 33 33 33 33 31 32 32 31 30 29 28 29 28 28 29 29 29 28 27 27 28 28 28 28 28 28 28 28 27 27 26 27 27 27 28 28 28 27 27 27
Wind_Direction
185 213 234 248 252 269 324 313 307 309 323 327 322 328 344 344 344 346 346 346 348 347 344 343 341 338 337 336 338 339 340 340 341 342 342 341 337 332 329 330 329 326 318 314
197 225 233 240 259 298 296 292 299 304 302 313 309 306 328 341 343 341 340 341 344 345 344 343 341 338 335 334 334 336 337 339 339 339 338 338 336 333 331 330 327 323 320 316
223 237 247 243 254 264 280 280 282 303 318 316 305 304 324 336 337 335 335 337 342 344 341 341 342 339 337 336 334 335 336 336 337 337 336 335 333 331 332 333 331 327 320 316
228 236 242 251 255 249 268 275 288 297 298 300 304 302 313 327 328 330 332 333 337 339 340 339 339 339 338 337 337 338 337 337 337 337 336 335 334 333 334 332 330 328 324 319
222 233 240 243 252 251 253 270 287 283 282 291 296 299 307 315 319 328 333 333 334 335 338 339 337 336 334 334 333 335 335 335 335 334 332 332 332 332 331 330 329 326 323 320
222 231 237 243 248 252 263 281 285 283 284 292 302 307 306 305 317 323 327 328 328 329 329 333 333 331 330 330 329 330 331 331 331 331 329 329 330 329 328 329 329 326 324 320
231 234 238 245 250 253 258 277 285 292 297 304 307 294 297 302 312 317 320 323 322 324 326 328 331 330 329 328 328 327 329 329 327 327 326 325 327 328 328 329 328 325 323 321
242 242 244 246 246 250 256 263 279 294 301 301 292 290 298 308 314 317 316 317 314 317 322 326 330 328 327 327 326 326 325 326 325 323 322 322 323 323 325 325 324 324 324 321
241 254 255 257 254 250 248 255 269 275 273 277 286 292 298 300 313 314 316 316 314 314 321 323 326 326 326 325 324 323 324 323 323 323 323 322 321 320 320 320 319 319 320 319
233 239 244 251 254 252 253 255 255 259 271 280 288 290 293 300 307 307 312 318 315 317 318 319 322 323 323 322 321 321 322 322 321 322 321 319 318 318 318 316 315 316 317 317
232 234 239 244 244 244 256 258 261 263 271 279 288 291 290 292 298 301 308 312 312 313 314 317 319 319 319 317 317 318 318 318 320 320 319 317 317 318 318 317 315 313 314 314
231 232 239 244 246 242 245 248 256 266 274 278 282 285 288 291 297 300 303 306 305 307 310 313 315 316 316 315 314 315 317 317 319 318 317 317 317 317 317 317 316 315 314 312
228 230 237 246 250 249 245 248 250 254 262 271 275 280 286 292 293 294 295 297 299 304 308 309 310 312 313 314 314 316 316 317 318 318 316 316 316 316 315 315 315 314 313 313
230 231 237 246 251 252 256 253 256 257 255 266 273 278 283 287 288 290 292 297 301 305 306 307 308 308 312 315 316 317 315 316 318 317 316 315 315 315 315 314 313 313 312 312
233 234 238 243 246 249 254 256 254 257 260 259 265 273 281 285 288 286 290 295 296 300 301 303 307 308 313 314 315 316 316 317 317 318 316 315 315 315 314 313 312 311 311 311
238 235 237 244 246 249 254 255 255 255 259 261 262 266 275 278 279 280 284 288 292 297 298 299 304 306 308 311 314 315 314 314 314 315 315 314 314 312 313 312 311 310 311 311
242 242 239 241 244 248 251 253 254 256 258 259 262 268 271 275 280 280 283 287 291 295 297 301 303 304 305 308 311 312 314 315 314 314 315 315 313 312 312 312 310 309 308 308
242 243 244 244 245 249 251 252 255 260 261 263 264 266 269 275 279 281 284 287 291 293 296 299 301 302 307 309 310 312 314 315 315 313 313 313 313 312 312 312 311 309 307 306
242 245 244 244 246 252 253 253 254 259 262 264 264 265 268 271 276 280 282 286 289 293 297 300 302 303 307 309 309 310 311 312 313 313 312 311 311 310 310 308 308 308 306 305
242 246 248 247 246 248 250 252 254 258 263 263 263 264 267 271 275 278 277 283 285 290 295 299 301 302 304 306 306 307 308 309 310 312 312 310 311 311 309 308 307 307 306 307
245 247 248 248 248 251 250 250 254 256 258 262 265 265 267 271 274 278 280 282 283 288 293 296 298 301 303 303 303 305 307 308 308 309 310 310 310 310 310 308 306 306 307 308
244 247 247 246 246 249 252 252 253 257 259 261 264 267 269 272 272 274 275 279 283 287 290 294 296 299 300 300 301 302 304 305 307 308 308 308 308 309 310 309 307 306 306 307
241 242 245 246 247 249 250 252 254 257 259 261 263 266 268 271 273 275 276 277 280 283 287 291 294 297 298 299 299 300 301 303 304 305 306 307 308 307 308 310 309 309 307 306
239 239 240 243 246 249 252 254 256 259 260 262 264 266 266 269 270 272 275 277 280 284 287 290 292 295 297 299 300 300 300 301 302 304 305 306 307 308 308 308 308 308 307 307
235 239 241 242 246 251 254 258 260 260 260 262 263 265 268 268 271 273 276 278 280 284 286 288 290 292 296 298 299 299 300 300 301 303 304 305 305 306 307 308 307 307 307 307
237 239 244 245 246 248 253 258 261 263 263 261 262 264 266 268 271 274 275 278 280 281 283 285 288 290 293 296 298 298 299 299 299 300 301 303 304 305 306 307 307 308 307 307
Height
5914 5916 5917 5918 5918 5920 5920 5920 5920 5919 5918 5916 5914 5912 5911 5909 5907 5906 5905 5903 5901 5900 5898 5896 5895 5893 5892 5890 5889 5887 5886 5884 5882 5881 5879 5877 5876 5874 5872 5871 5869 5868 5866 5865
5915 5916 5917 5918 5918 5919 5920 5921 5920 5919 5917 5915 5913 5910 5910 5909 5907 5906 5904 5902 5900 5899 5898 5896 5894 5893 5891 5890 5888 5886 5885 5883 5881 5880 5878 5876 5874 5873 5871 5869 5867 5866 5865 5864
5914 5916 5916 5917 5918 5920 5920 5920 5920 5919 5917 5915 5914 5909 5908 5907 5907 5906 5904 5902 5900 5898 5897 5895 5894 5892 5890 5889 5887 5886 5884 5882 5880 5879 5877 5875 5873 5871 5870 5868 5866 5865 5864 5862
5913 5914 5916 5917 5917 5919 5919 5919 5918 5918 5917 5915 5913 5909 5907 5906 5905 5905 5904 5901 5900 5898 5896 5895 5893 5891 5889 5888 5886 5885 5883 5881 5879 5877 5876 5874 5872 5870 5868 5867 5865 5863 5862 5861
5911 5913 5915 5916 5917 5917 5917 5917 5917 5916 5914 5914 5911 5909 5906 5906 5904 5904 5903 5901 5899 5897 5896 5894 5892 5890 5888 5887 5885 5884 5882 5880 5878 5876 5874 5873 5871 5869 5867 5865 5863 5862 5860 5859
5909 5911 5913 5914 5914 5915 5915 5916 5915 5914 5913 5912 5911 5909 5906 5903 5903 5903 5901 5900 5898 5897 5894 5892 5891 5889 5887 5885 5884 5882 5880 5879 5877 5875 5873 5871 5869 5867 5865 5863 5862 5860 5858 5856
5907 5909 5910 5911 5912 5913 5914 5915 5914 5913 5911 5911 5909 5908 5905 5901 5902 5902 5900 5898 5897 5895 5893 5891 5889 5888 5886 5884 5882 5881 5879 5877 5875 5873 5871 5869 5868 5866 5864 5862 5860 5858 5856 5854
5905 5907 5907 5908 5909 5911 5912 5913 5913 5912 5912 5911 5908 5905 5903 5901 5901 5900 5899 5897 5895 5893 5891 5890 5888 5886 5884 5882 5881 5879 5877 5875 5873 5871 5869 5867 5865 5863 5861 5859 5857 5855 5853 5851
5903 5904 5906 5906 5907 5909 5909 5910 5911 5911 5910 5909 5906 5903 5902 5899 5899 5898 5897 5895 5892 5890 5889 5888 5886 5884 5882 5880 5879 5877 5875 5873 5871 5868 5866 5864 5862 5860 5859 5857 5854 5852 5851 5849
5900 5902 5904 5905 5905 5906 5907 5907 5907 5907 5906 5905 5905 5901 5900 5898 5898 5896 5894 5892 5891 5889 5888 5886 5884 5882 5880 5878 5876 5874 5872 5870 5868 5865 5863 5861 5859 5857 5855 5853 5851 5849 5848 5846
5897 5898 5901 5901 5901 5903 5905 5905 5905 5904 5904 5904 5903 5901 5898 5897 5895 5894 5892 5891 5888 5887 5885 5884 5882 5880 5878 5875 5874 5871 5869 5867 5864 5862 5860 5858 5856 5854 5852 5850 5848 5846 5844 5842
5893 5895 5896 5897 5898 5899 5900 5901 5902 5903 5902 5901 5901 5900 5895 5893 5892 5891 5890 5889 5886 5885 5883 5881 5879 5877 5875 5873 5870 5868 5865 5864 5862 5860 5857 5855 5853 5851 5849 5847 5845 5842 5840 5838
5888 5890 5891 5892 5895 5895 5895 5896 5897 5899 5899 5898 5898 5897 5892 5891 5890 5889 5888 5886 5884 5882 5880 5878 5876 5873 5872 5870 5868 5864 5862 5861 5859 5857 5854 5851 5849 5847 5845 5843 5841 5839 5837 5835
5883 5885 5887 5890 5890 5890 5891 5892 5893 5894 5894 5894 5894 5892 5889 5888 5887 5884 5883 5883 5881 5878 5877 5875 5873 5870 5869 5867 5865 5862 5859 5857 5855 5853 5850 5848 5846 5844 5841 5839 5837 5835 5833 5831
5878 5880 5881 5884 5884 5886 5887 5888 5889 5890 5890 5890 5890 5888 5885 5884 5882 5880 5879 5878 5877 5876 5874 5872 5870 5867 5865 5864 5862 5859 5856 5854 5851 5849 5847 5844 5842 5839 5837 5835 5833 5830 5828 5826
5872 5874 5876 5878 5879 5880 5881 5883 5884 5885 5886 5885 5885 5884 5882 5880 5878 5876 5875 5874 5873 5872 5869 5868 5867 5865 5863 5861 5858 5856 5853 5851 5848 5846 5843 5841 5838 5835 5833 5831 5828 5826 5824 5822
5866 5868 5870 5873 5875 5875 5877 5879 5880 5880 5880 5880 5879 5879 5877 5875 5873 5871 5870 5870 5869 5868 5866 5864 5863 5861 5859 5857 5855 5852 5850 5847 5845 5842 5840 5837 5834 5832 5829 5826 5824 5821 5819 5817
5860 5863 5865 5867 5869 5869 5874 5874 5875 5875 5874 5874 5872 5872 5871 5870 5868 5866 5865 5865 5864 5863 5862 5861 5859 5857 5855 5853 5850 5848 5846 5843 5841 5838 5836 5833 5830 5827 5825 5822 5819 5817 5814 5812
5855 5856 5858 5861 5862 5864 5867 5868 5868 5868 5868 5867 5867 5867 5867 5864 5863 5861 5860 5860 5859 5858 5857 5856 5854 5852 5851 5848 5846 5844 5841 5839 5836 5834 5831 5828 5825 5823 5820 5817 5814 5812 5809 5807
5850 5851 5853 5854 5856 5858 5861 5861 5861 5862 5861 5861 5860 5860 5860 5859 5858 5855 5855 5855 5854 5853 5853 5851 5849 5848 5846 5844 5841 5839 5837 5834 5832 5829 5826 5823 5820 5818 5815 5812 5809 5806 5804 5801
5843 5844 5846 5847 5849 5850 5852 5854 5855 5856 5855 5854 5854 5854 5853 5853 5854 5851 5850 5849 5848 5848 5847 5846 5844 5843 5841 5839 5837 5834 5832 5829 5827 5824 5821 5818 5815 5812 5810 5806 5803 5801 5798 5796
5835 5837 5838 5840 5842 5845 5845 5846 5848 5847 5847 5847 5847 5847 5847 5847 5847 5846 5845 5844 5842 5842 5841 5841 5839 5838 5836 5834 5832 5829 5827 5824 5821 5819 5816 5813 5810 5807 5804 5801 5798 5795 5792 5790
5828 5831 5831 5833 5835 5835 5836 5838 5838 5839 5840 5840 5841 5841 5841 5841 5839 5839 5838 5837 5837 5836 5835 5834 5833 5832 5830 5828 5826 5824 5821 5818 5816 5813 5810 5807 5804 5801 5798 5795 5792 5789 5786 5784
5820 5821 5823 5824 5825 5826 5827 5828 5830 5832 5833 5834 5834 5834 5834 5834 5833 5832 5832 5832 5831 5830 5828 5827 5827 5825 5824 5822 5819 5817 5814 5812 5809 5807 5804 5801 5799 5796 5793 5789 5786 5784 5781 5778
5811 5812 5813 5816 5818 5819 5819 5820 5822 5824 5825 5826 5827 5826 5826 5826 5826 5826 5825 5825 5824 5824 5822 5821 5820 5819 5817 5815 5812 5810 5808 5805 5802 5800 5798 5795 5793 5790 5787 5783 5780 5778 5775 5771
5802 5805 5806 5808 5809 5810 5811 5812 5814 5815 5816 5818 5818 5818 5818 5818 5818 5818 5818 5817 5817 5816 5815 5814 5813 5811 5809 5807 5806 5803 5801 5798 5796 5794 5791 5789 5786 5783 5781 5778 5775 5772 5769 5765